Regional Weather Roundup
Issued by NWS Midland/Odessa, TX

Skip options and go directly to product.
Home | Oldest Version | Previous Version | Current Version | All | Graphics & Text | Save Text | Print | Product List | Glossary On

Skip product version selection by date and time.   
953
ASUS44 KMAF 302110
RWRMAF
MIDLAND AREA WEATHER ROUNDUP
NATIONAL WEATHER SERVICE MIDLAND TX
300 PM CST FRI JAN 30 2015

...IN SOUTHWEST TEXAS AND SOUTHEAST NEW MEXICO...

CITY           SKY/WX    TMP DP  RH WIND       PRES   REMARKS
ALPINE         CLOUDY    46  34  61 NE8       30.26F
ANDREWS        CLOUDY    45  30  56 SE9       30.27F WCI  40
ARTESIA        CLOUDY    41  32  70 SE7       30.25F WCI  36
BIG SPRING     CLOUDY    51  30  43 E12       30.29F
CARLSBAD       CLOUDY    43  33  68 E6        30.24F WCI  39
DRYDEN           N/A     51  41  68 E9        30.22F
FORT STOCKTON  CLOUDY    49  35  58 E10       30.23F
GUAD PASS      MIX PCPN  32  32 100 NE32      30.15F VSB 1/4 WCI  17
HOBBS          CLOUDY    41  32  70 SE8       30.27F WCI  36
MARFA          CLOUDY    48  36  61 E7        30.20F
MIDLAND AIRPK  CLOUDY    48  31  51 SE8       30.27F
MIDLAND INTL   CLOUDY    48  31  51 E9        30.26F
ODESSA         CLOUDY    47  30  51 E9        30.27F
PECOS          CLOUDY    47  33  57 NE8       30.25F
PRESIDIO       CLOUDY    59  40  49 NE12G21   30.10F
SEMINOLE       CLOUDY    45  29  54 SE9       30.27F WCI  40
SNYDER         CLOUDY   N/A N/A N/A E9        30.31F
WINK           CLOUDY    47  30  51 E8        30.24F
$$
...OTHER STATIONS IN TEXAS...

CITY           SKY/WX    TMP DP  RH WIND       PRES   REMARKS
ABILENE        CLOUDY    50  30  46 E9        30.32F
AMARILLO       CLOUDY    39  26  59 SE12      30.30F WCI  32
AUSTIN         PTSUNNY   56  39  53 E8        30.32F
BROWNSVILLE    CLOUDY    71  62  73 NE17      30.21F
CORPUS CHRISTI CLOUDY    63  51  65 E17       30.27F
DALLAS FTW     PTSUNNY   56  29  35 E6        30.36F
DEL RIO        CLOUDY    59  37  44 S7        30.24F
EL PASO        LGT RAIN  46  39  76 E12       30.10F
HOUSTON INT    PTSUNNY   65  37  35 VRB3      30.32F
LUBBOCK        CLOUDY    43  27  53 SE13      30.27F WCI  36
SAN ANGELO     PTSUNNY   54  34  46 E12       30.28F
SAN ANTONIO    CLOUDY    61  40  45 E14       30.29F
WACO           PTSUNNY   54  34  46 CALM      30.36F
WICHITA FALLS  NOT AVBL
$$
...OTHER LOCATIONS IN NEW MEXICO...

CITY           SKY/WX    TMP DP  RH WIND       PRES   REMARKS
ALAMAGORDO     LGT RAIN  45  43  93 N8        30.13F
ALBUQUERQUE    CLOUDY    35  33  92 N7        30.14F WCI  29
CANNON AFB     CLOUDY    36  31  80 SE8       30.26F WCI  30
CLOVIS         CLOUDY    36  28  75 S9        30.27F WCI  29
HOLLOMAN AFB   CLOUDY    45  41  87 N6        30.11F
ROSWELL        CLOUDY    41  31  67 SE8       30.24F WCI  36
RUIDOSO        CLOUDY    32  32 100 SE13      30.16F WCI  22
SANTA FE       CLOUDY    32  26  78 S8        30.16F WCI  25
TRUTH OR CONSE CLOUDY    39  38  96 N7        30.10F WCI  34
TUCUMCARI      LGT RAIN  36  34  92 CALM      30.25F
$$

USA.gov is the U.S. government's official web portal to all federal, state and local government web resources and services.